This is the latest recevied weather packets stored in our database for station/object WV5G-13. If no packets are shown the sender has not sent any weather packets the latest 10 day(s).
| Time | Temp. | Humidity | Pressure | Rain* | Wind** | Luminosity | Snow |
|---|---|---|---|---|---|---|---|
| 1777924912 | 28.89° C | 22% | 1003.9 hPa | 0 mm | - | 449 W/m² | - |
| 1777924608 | 28.89° C | 23% | 1004 hPa | 0 mm | - | 599 W/m² | - |
| 1777924304 | 28.89° C | 21% | 1004 hPa | 0 mm | - | 508 W/m² | - |
| 1777924001 | 28.89° C | 23% | 1004.2 hPa | 0 mm | - | 484 W/m² | - |
| 1777923697 | 28.89° C | 22% | 1004.1 hPa | 0 mm | - | 473 W/m² | - |
| 1777923393 | 28.33° C | 22% | 1004.2 hPa | 0 mm | - | 461 W/m² | - |
| 1777923092 | 28.33° C | 23% | 1004.4 hPa | 0 mm | - | 461 W/m² | - |
| 1777922789 | 28.33° C | 23% | 1004.2 hPa | 0 mm | - | 489 W/m² | - |
| 1777922487 | 28.33° C | 23% | 1004.6 hPa | 0 mm | - | 480 W/m² | - |
| 1777922186 | 27.78° C | 23% | 1004.6 hPa | 0 mm | - | 445 W/m² | - |
| 1777921881 | 28.33° C | 23% | 1004.3 hPa | 0 mm | - | 462 W/m² | - |
| 1777921577 | 28.33° C | 23% | 1004.8 hPa | 0 mm | - | 482 W/m² | - |
| 1777921274 | 28.33° C | 22% | 1004.4 hPa | 0 mm | - | 527 W/m² | - |
| 1777920971 | 27.78° C | 24% | 1004.8 hPa | 0 mm | - | 544 W/m² | - |
| 1777920668 | 28.33° C | 23% | 1004.8 hPa | 0 mm | - | 571 W/m² | - |
| 1777920363 | 28.33° C | 23% | 1004.9 hPa | 0 mm | - | 569 W/m² | - |
| 1777920058 | 28.33° C | 23% | 1005.1 hPa | 0 mm | - | 604 W/m² | - |
| 1777919756 | 27.78° C | 25% | 1005.2 hPa | 0 mm | - | 566 W/m² | - |
| 1777919454 | 28.33° C | 24% | 1005.1 hPa | 0 mm | - | 682 W/m² | - |
| 1777919150 | 28.33° C | 23% | 1005.4 hPa | 0 mm | - | 668 W/m² | - |
| 1777918848 | 27.78° C | 24% | 1005.4 hPa | 0 mm | - | 847 W/m² | - |
| 1777918545 | 27.78° C | 23% | 1005.7 hPa | 0 mm | - | 599 W/m² | - |
| 1777918243 | 27.78° C | 24% | 1005.6 hPa | 0 mm | - | 563 W/m² | - |
| 1777917942 | 27.78° C | 24% | 1005.7 hPa | 0 mm | - | 645 W/m² | - |
| 1777917640 | 27.78° C | 24% | 1005.7 hPa | 0 mm | - | 717 W/m² | - |
* Rain latest hour (hover to see other rain measurements)
** Current wind speed in m/s (hover to see current wind gust speed)